| time (UTC) | temp C | wind direction | speed KPH | gust KPH | rain 1hr cm | rain 24hr cm | rain mn cm | humidity % | barometer mb |
| 20260507123503 | 13 | 0 | 0.0 | 0.0 | 0.00 | 0.00 | 0.00 | 71 | 1017.4 |
| 20260507123003 | 13 | 271 | 1.6 | 0.0 | 0.00 | 0.00 | 0.00 | 70 | 1017.4 |
| 20260507122503 | 13 | 271 | 1.6 | 4.8 | 0.00 | 0.00 | 0.00 | 70 | 1017.4 |
| 20260507122004 | 13 | 271 | 3.2 | 6.4 | 0.00 | 0.00 | 0.00 | 70 | 1017.4 |
| 20260507121503 | 13 | 271 | 3.2 | 8.0 | 0.00 | 0.00 | 0.00 | 72 | 1017.3 |
| 20260507121003 | 13 | 271 | 1.6 | 4.8 | 0.00 | 0.00 | 0.00 | 70 | 1017.3 |
| 20260507120503 | 13 | 271 | 3.2 | 8.0 | 0.00 | 0.00 | 0.00 | 71 | 1017.3 |
| 20260507120004 | 13 | 271 | 1.6 | 4.8 | 0.00 | 0.00 | 0.00 | 70 | 1017.4 |
| 20260507115503 | 13 | 271 | 4.8 | 4.8 | 0.00 | 0.00 | 0.00 | 69 | 1017.4 |
| 20260507115004 | 14 | 274 | 3.2 | 8.0 | 0.00 | 0.00 | 0.00 | 69 | 1017.3 |
| 20260507114503 | 14 | 275 | 1.6 | 4.8 | 0.00 | 0.00 | 0.00 | 70 | 1017.4 |
| 20260507114003 | 14 | 275 | 1.6 | 3.2 | 0.00 | 0.00 | 0.00 | 70 | 1017.3 |
| 20260507113503 | 14 | 271 | 3.2 | 4.8 | 0.00 | 0.00 | 0.00 | 70 | 1017.3 |
| 20260507113003 | 13 | 247 | 4.8 | 6.4 | 0.00 | 0.00 | 0.00 | 70 | 1017.2 |
| 20260507112503 | 14 | 246 | 4.8 | 3.2 | 0.00 | 0.00 | 0.00 | 70 | 1017.2 |
| 20260507112003 | 14 | 246 | 1.6 | 1.6 | 0.00 | 0.00 | 0.00 | 70 | 1017.3 |
| 20260507111504 | 14 | 241 | 4.8 | 6.4 | 0.00 | 0.00 | 0.00 | 70 | 1017.2 |
| 20260507111003 | 14 | 240 | 6.4 | 9.7 | 0.00 | 0.00 | 0.00 | 69 | 1017.2 |
| 20260507110503 | 14 | 288 | 3.2 | 6.4 | 0.00 | 0.00 | 0.00 | 69 | 1017.3 |
| 20260507110003 | 14 | 256 | 3.2 | 8.0 | 0.00 | 0.00 | 0.00 | 71 | 1017.3 |
| 20260507105503 | 14 | 121 | 1.6 | 1.6 | 0.00 | 0.00 | 0.00 | 69 | 1017.3 |
| 20260507105003 | 14 | 121 | 3.2 | 8.0 | 0.00 | 0.00 | 0.00 | 70 | 1017.3 |
| 20260507104504 | 14 | 129 | 3.2 | 3.2 | 0.00 | 0.00 | 0.00 | 69 | 1017.3 |
| 20260507104003 | 14 | 139 | 6.4 | 8.0 | 0.00 | 0.00 | 0.00 | 68 | 1017.4 |
| 20260507103503 | 15 | 136 | 4.8 | 12.9 | 0.00 | 0.00 | 0.00 | 67 | 1017.4 |
| 20260507103003 | 15 | 91 | 4.8 | 6.4 | 0.00 | 0.00 | 0.00 | 67 | 1017.4 |
| 20260507102503 | 15 | 70 | 3.2 | 9.7 | 0.00 | 0.00 | 0.00 | 67 | 1017.4 |
| 20260507102003 | 15 | 314 | 3.2 | 3.2 | 0.00 | 0.00 | 0.00 | 67 | 1017.5 |
| 20260507101503 | 15 | 272 | 4.8 | 8.0 | 0.00 | 0.00 | 0.00 | 70 | 1017.5 |
| 20260507101003 | 14 | 258 | 3.2 | 8.0 | 0.00 | 0.00 | 0.00 | 70 | 1017.4 |
| 20260507100503 | 14 | 226 | 1.6 | 6.4 | 0.00 | 0.00 | 0.00 | 72 | 1017.4 |
| 20260507100003 | 13 | 209 | 1.6 | 1.6 | 0.00 | 0.00 | 0.00 | 74 | 1017.4 |
| 20260507095503 | 13 | 210 | 3.2 | 8.0 | 0.00 | 0.00 | 0.00 | 73 | 1017.3 |
| 20260507095003 | 13 | 211 | 1.6 | 8.0 | 0.00 | 0.00 | 0.00 | 73 | 1017.3 |
| 20260507094503 | 12 | 211 | 3.2 | 3.2 | 0.00 | 0.00 | 0.00 | 76 | 1017.3 |
| 20260507094003 | 12 | 209 | 3.2 | 0.0 | 0.00 | 0.00 | 0.00 | 76 | 1017.3 |
| 20260507093503 | 12 | 210 | 4.8 | 8.0 | 0.00 | 0.00 | 0.00 | 76 | 1017.3 |
| 20260507093003 | 12 | 218 | 6.4 | 6.4 | 0.00 | 0.00 | 0.00 | 79 | 1017.2 |
| 20260507092503 | 12 | 218 | 6.4 | 8.0 | 0.00 | 0.00 | 0.00 | 79 | 1017.2 |
| 20260507092003 | 12 | 230 | 6.4 | 8.0 | 0.00 | 0.00 | 0.00 | 81 | 1017.2 |
| 20260507091503 | 12 | 238 | 4.8 | 8.0 | 0.00 | 0.00 | 0.00 | 84 | 1017.2 |
| 20260507091003 | 12 | 208 | 6.4 | 8.0 | 0.00 | 0.00 | 0.00 | 83 | 1017.2 |
| 20260507090503 | 12 | 197 | 8.0 | 9.7 | 0.00 | 0.00 | 0.00 | 83 | 1017.1 |
| 20260507090004 | 12 | 217 | 6.4 | 12.9 | 0.00 | 0.00 | 0.00 | 83 | 1017.0 |
| 20260507085503 | 12 | 205 | 4.8 | 11.3 | 0.00 | 0.00 | 0.00 | 82 | 1017.0 |
| 20260507085003 | 12 | 180 | 4.8 | 4.8 | 0.00 | 0.00 | 0.00 | 79 | 1017.0 |
| 20260507084503 | 12 | 180 | 1.6 | 6.4 | 0.00 | 0.00 | 0.00 | 81 | 1017.0 |
| 20260507084003 | 12 | 180 | 3.2 | 3.2 | 0.00 | 0.00 | 0.00 | 82 | 1016.9 |
| 20260507083503 | 12 | 185 | 3.2 | 4.8 | 0.00 | 0.00 | 0.00 | 83 | 1016.9 |
| 20260507083004 | 12 | 186 | 3.2 | 8.0 | 0.00 | 0.00 | 0.00 | 83 | 1016.9 |
| 20260507082503 | 12 | 193 | 1.6 | 4.8 | 0.00 | 0.00 | 0.00 | 85 | 1016.9 |
| 20260507082003 | 12 | 200 | 3.2 | 3.2 | 0.00 | 0.00 | 0.00 | 86 | 1016.8 |
| 20260507081503 | 12 | 220 | 1.6 | 1.6 | 0.00 | 0.00 | 0.00 | 88 | 1016.9 |
| 20260507081003 | 11 | 220 | 3.2 | 6.4 | 0.00 | 0.00 | 0.00 | 89 | 1016.9 |
| 20260507080503 | 11 | 220 | 1.6 | 6.4 | 0.00 | 0.00 | 0.00 | 90 | 1016.8 |
| 20260507080003 | 11 | 220 | 1.6 | 3.2 | 0.00 | 0.00 | 0.00 | 91 | 1016.7 |
| 20260507075524 | 11 | 220 | 1.6 | 3.2 | 0.00 | 0.00 | 0.00 | 91 | 1016.7 |
| 20260507075003 | 11 | 220 | 1.6 | 3.2 | 0.00 | 0.00 | 0.00 | 91 | 1016.6 |
| 20260507074503 | 11 | 299 | 3.2 | 4.8 | 0.00 | 0.00 | 0.00 | 92 | 1016.7 |
| 20260507074003 | 11 | 306 | 1.6 | 3.2 | 0.00 | 0.00 | 0.00 | 92 | 1016.7 |
| 20260507073524 | 11 | 306 | 1.6 | 1.6 | 0.00 | 0.00 | 0.00 | 92 | 1016.7 |
| 20260507073024 | 10 | 306 | 1.6 | 3.2 | 0.00 | 0.00 | 0.00 | 92 | 1016.7 |
| 20260507072503 | 10 | 306 | 3.2 | 4.8 | 0.00 | 0.00 | 0.00 | 92 | 1016.6 |
| 20260507072024 | 10 | 306 | 3.2 | 6.4 | 0.00 | 0.00 | 0.00 | 93 | 1016.6 |
| 20260507071504 | 10 | 307 | 3.2 | 3.2 | 0.00 | 0.00 | 0.00 | 93 | 1016.5 |
| 20260507071003 | 10 | 307 | 3.2 | 4.8 | 0.00 | 0.00 | 0.00 | 93 | 1016.5 |
| 20260507070503 | 10 | 307 | 3.2 | 6.4 | 0.00 | 0.00 | 0.00 | 93 | 1016.4 |
| 20260507070005 | 10 | 307 | 1.6 | 4.8 | 0.00 | 0.00 | 0.00 | 93 | 1016.4 |
| 20260507065524 | 10 | 310 | 3.2 | 3.2 | 0.00 | 0.00 | 0.00 | 94 | 1016.4 |
| 20260507065003 | 10 | 316 | 3.2 | 4.8 | 0.00 | 0.00 | 0.00 | 93 | 1016.4 |
| 20260507064503 | 10 | 316 | 3.2 | 4.8 | 0.00 | 0.00 | 0.00 | 93 | 1016.5 |
| 20260507064003 | 10 | 316 | 3.2 | 6.4 | 0.00 | 0.00 | 0.00 | 94 | 1016.4 |
| 20260507063524 | 10 | 316 | 3.2 | 6.4 | 0.00 | 0.00 | 0.00 | 94 | 1016.4 |
| 20260507063003 | 10 | 317 | 3.2 | 6.4 | 0.00 | 0.00 | 0.00 | 94 | 1016.3 |
| 20260507062503 | 10 | 318 | 3.2 | 6.4 | 0.00 | 0.00 | 0.00 | 94 | 1016.3 |
| 20260507062004 | 10 | 320 | 3.2 | 3.2 | 0.00 | 0.00 | 0.00 | 94 | 1016.3 |
| 20260507061503 | 9 | 320 | 1.6 | 3.2 | 0.00 | 0.00 | 0.00 | 94 | 1016.4 |
| 20260507061003 | 9 | 320 | 1.6 | 1.6 | 0.00 | 0.00 | 0.00 | 94 | 1016.3 |
| 20260507060503 | 9 | 320 | 1.6 | 3.2 | 0.00 | 0.00 | 0.00 | 94 | 1016.3 |
| 20260507060003 | 9 | 0 | 0.0 | 0.0 | 0.00 | 0.00 | 0.00 | 94 | 1016.2 |
| 20260507055503 | 9 | 0 | 0.0 | 0.0 | 0.00 | 0.00 | 0.00 | 94 | 1016.1 |
| 20260507055003 | 9 | 0 | 0.0 | 0.0 | 0.00 | 0.00 | 0.00 | 94 | 1016.0 |
| 20260507054503 | 9 | 0 | 0.0 | 0.0 | 0.00 | 0.00 | 0.00 | 94 | 1016.1 |
| 20260507054003 | 8 | 0 | 0.0 | 0.0 | 0.00 | 0.00 | 0.00 | 94 | 1016.0 |
| 20260507053503 | 8 | 0 | 0.0 | 0.0 | 0.00 | 0.00 | 0.00 | 94 | 1016.0 |
| 20260507053004 | 8 | 0 | 0.0 | 0.0 | 0.00 | 0.00 | 0.00 | 94 | 1015.9 |
| 20260507052503 | 8 | 0 | 0.0 | 0.0 | 0.00 | 0.00 | 0.00 | 94 | 1015.8 |
| 20260507052003 | 8 | 0 | 0.0 | 0.0 | 0.00 | 0.00 | 0.00 | 94 | 1015.8 |
| 20260507051504 | 8 | 0 | 0.0 | 0.0 | 0.00 | 0.00 | 0.00 | 93 | 1015.7 |
| 20260507051003 | 8 | 0 | 0.0 | 0.0 | 0.00 | 0.00 | 0.00 | 93 | 1015.6 |
| 20260507050503 | 8 | 0 | 0.0 | 0.0 | 0.00 | 0.00 | 0.00 | 93 | 1015.6 |
| 20260507050003 | 8 | 0 | 0.0 | 0.0 | 0.00 | 0.00 | 0.00 | 93 | 1015.5 |
| 20260507045503 | 8 | 0 | 0.0 | 0.0 | 0.00 | 0.00 | 0.00 | 93 | 1015.5 |
| 20260507045003 | 8 | 0 | 0.0 | 0.0 | 0.00 | 0.00 | 0.00 | 93 | 1015.5 |
| 20260507044503 | 8 | 0 | 0.0 | 0.0 | 0.00 | 0.00 | 0.00 | 93 | 1015.5 |
| 20260507044003 | 8 | 0 | 0.0 | 0.0 | 0.00 | 0.00 | 0.00 | 93 | 1015.4 |
| 20260507043503 | 8 | 0 | 0.0 | 0.0 | 0.00 | 0.00 | 0.00 | 93 | 1015.4 |
| 20260507043003 | 8 | 0 | 0.0 | 0.0 | 0.00 | 0.00 | 0.00 | 93 | 1015.4 |
| 20260507042503 | 9 | 0 | 0.0 | 0.0 | 0.00 | 0.00 | 0.00 | 93 | 1015.4 |
| 20260507042003 | 9 | 0 | 0.0 | 0.0 | 0.00 | 0.00 | 0.00 | 93 | 1015.4 |
| 20260507041503 | 9 | 320 | 0.0 | 0.0 | 0.00 | 0.00 | 0.00 | 93 | 1015.4 |
| 20260507041003 | 9 | 320 | 0.0 | 0.0 | 0.00 | 0.00 | 0.00 | 93 | 1015.4 |
| 20260507040503 | 9 | 320 | 0.0 | 1.6 | 0.00 | 0.00 | 0.00 | 93 | 1015.3 |
| 20260507040003 | 9 | 320 | 1.6 | 1.6 | 0.00 | 0.00 | 0.00 | 93 | 1015.4 |
| 20260507035504 | 9 | 320 | 1.6 | 3.2 | 0.00 | 0.00 | 0.00 | 92 | 1015.3 |
| 20260507035003 | 9 | 320 | 1.6 | 3.2 | 0.00 | 0.00 | 0.00 | 92 | 1015.3 |
| 20260507034503 | 9 | 320 | 0.0 | 3.2 | 0.00 | 0.00 | 0.00 | 92 | 1015.3 |
| 20260507034003 | 9 | 0 | 0.0 | 0.0 | 0.00 | 0.00 | 0.00 | 92 | 1015.3 |
| 20260507033503 | 9 | 0 | 0.0 | 0.0 | 0.00 | 0.00 | 0.00 | 92 | 1015.2 |
| 20260507033005 | 9 | 0 | 0.0 | 0.0 | 0.00 | 0.00 | 0.00 | 92 | 1015.2 |
| 20260507032503 | 9 | 0 | 0.0 | 0.0 | 0.00 | 0.00 | 0.00 | 92 | 1015.2 |
| 20260507032003 | 9 | 0 | 0.0 | 0.0 | 0.00 | 0.00 | 0.00 | 92 | 1015.1 |
| 20260507031503 | 9 | 0 | 0.0 | 0.0 | 0.00 | 0.00 | 0.00 | 92 | 1015.1 |
| 20260507031004 | 9 | 0 | 0.0 | 0.0 | 0.00 | 0.00 | 0.00 | 92 | 1015.1 |
| 20260507030503 | 9 | 0 | 0.0 | 0.0 | 0.00 | 0.00 | 0.00 | 92 | 1015.0 |
| 20260507030003 | 9 | 320 | 0.0 | 1.6 | 0.00 | 0.00 | 0.00 | 92 | 1015.0 |
| 20260507025503 | 9 | 320 | 0.0 | 1.6 | 0.00 | 0.00 | 0.00 | 92 | 1015.0 |
| 20260507025003 | 9 | 0 | 0.0 | 0.0 | 0.00 | 0.00 | 0.00 | 92 | 1014.9 |
| 20260507024503 | 9 | 320 | 0.0 | 0.0 | 0.00 | 0.00 | 0.00 | 91 | 1015.0 |
| 20260507024003 | 9 | 320 | 0.0 | 0.0 | 0.00 | 0.00 | 0.00 | 91 | 1014.9 |
| 20260507023503 | 9 | 320 | 0.0 | 0.0 | 0.00 | 0.00 | 0.00 | 91 | 1014.9 |
| 20260507023003 | 9 | 0 | 0.0 | 0.0 | 0.00 | 0.00 | 0.00 | 91 | 1014.9 |
| 20260507022503 | 9 | 0 | 0.0 | 0.0 | 0.00 | 0.00 | 0.00 | 91 | 1015.0 |
| 20260507022003 | 9 | 0 | 0.0 | 0.0 | 0.00 | 0.00 | 0.00 | 91 | 1015.0 |
| 20260507021503 | 9 | 0 | 0.0 | 0.0 | 0.00 | 0.00 | 0.00 | 91 | 1015.0 |
| 20260507021003 | 9 | 320 | 1.6 | 3.2 | 0.00 | 0.00 | 0.00 | 91 | 1014.9 |
| 20260507020503 | 9 | 320 | 1.6 | 3.2 | 0.00 | 0.00 | 0.00 | 91 | 1014.9 |
| 20260507020003 | 9 | 320 | 0.0 | 0.0 | 0.00 | 0.00 | 0.00 | 91 | 1014.8 |
| 20260507015503 | 9 | 320 | 1.6 | 4.8 | 0.00 | 0.00 | 0.00 | 91 | 1014.8 |
| 20260507015004 | 9 | 320 | 0.0 | 3.2 | 0.00 | 0.00 | 0.00 | 91 | 1014.8 |
| 20260507014524 | 9 | 320 | 0.0 | 1.6 | 0.00 | 0.00 | 0.00 | 90 | 1014.8 |
| 20260507014003 | 9 | 320 | 0.0 | 0.0 | 0.00 | 0.00 | 0.00 | 90 | 1014.7 |
| 20260507013503 | 9 | 320 | 0.0 | 3.2 | 0.00 | 0.00 | 0.00 | 90 | 1014.8 |
| 20260507013003 | 9 | 0 | 0.0 | 0.0 | 0.00 | 0.00 | 0.00 | 90 | 1014.7 |
| 20260507012503 | 9 | 0 | 0.0 | 0.0 | 0.00 | 0.00 | 0.00 | 90 | 1014.8 |
| 20260507012003 | 9 | 320 | 0.0 | 0.0 | 0.00 | 0.00 | 0.00 | 91 | 1014.8 |
| 20260507011503 | 9 | 320 | 0.0 | 1.6 | 0.00 | 0.00 | 0.00 | 91 | 1014.7 |
| 20260507011003 | 9 | 320 | 0.0 | 1.6 | 0.00 | 0.00 | 0.00 | 91 | 1014.7 |
| 20260507010524 | 9 | 320 | 1.6 | 6.4 | 0.00 | 0.00 | 0.00 | 90 | 1014.7 |
| 20260507010003 | 9 | 321 | 1.6 | 0.0 | 0.00 | 0.00 | 0.00 | 90 | 1014.7 |
| 20260507005524 | 9 | 321 | 0.0 | 1.6 | 0.00 | 0.00 | 0.00 | 90 | 1014.6 |
| 20260507005003 | 9 | 321 | 1.6 | 6.4 | 0.00 | 0.00 | 0.00 | 90 | 1014.6 |
| 20260507004524 | 9 | 320 | 3.2 | 6.4 | 0.00 | 0.00 | 0.00 | 90 | 1014.7 |
| 20260507004003 | 9 | 320 | 3.2 | 6.4 | 0.00 | 0.00 | 0.00 | 90 | 1014.7 |
| 20260507003503 | 9 | 315 | 3.2 | 8.0 | 0.00 | 0.00 | 0.00 | 90 | 1014.6 |
| 20260507003003 | 9 | 313 | 3.2 | 9.7 | 0.00 | 0.00 | 0.00 | 90 | 1014.7 |
| 20260507002503 | 9 | 311 | 4.8 | 8.0 | 0.00 | 0.00 | 0.00 | 90 | 1014.7 |
| 20260507002003 | 9 | 310 | 4.8 | 8.0 | 0.00 | 0.00 | 0.00 | 90 | 1014.6 |
| 20260507001503 | 9 | 314 | 6.4 | 9.7 | 0.00 | 0.00 | 0.00 | 90 | 1014.7 |
| 20260507001003 | 9 | 318 | 4.8 | 9.7 | 0.00 | 0.00 | 0.00 | 90 | 1014.7 |
| 20260507000503 | 9 | 309 | 4.8 | 8.0 | 0.00 | 0.00 | 0.00 | 90 | 1014.6 |
| 20260507000003 | 9 | 309 | 4.8 | 9.7 | 0.00 | 0.00 | 0.00 | 90 | 1014.6 |
| 20260506235503 | 9 | 305 | 4.8 | 8.0 | 0.00 | 0.00 | 0.00 | 90 | 1014.6 |
| 20260506235003 | 9 | 312 | 6.4 | 9.7 | 0.00 | 0.00 | 0.00 | 90 | 1014.6 |
| 20260506234503 | 9 | 312 | 6.4 | 9.7 | 0.00 | 0.00 | 0.00 | 90 | 1014.6 |
| 20260506234003 | 9 | 319 | 6.4 | 11.3 | 0.00 | 0.00 | 0.00 | 90 | 1014.7 |
| 20260506233503 | 9 | 312 | 6.4 | 11.3 | 0.00 | 0.00 | 0.00 | 90 | 1014.6 |
| 20260506233024 | 9 | 308 | 6.4 | 11.3 | 0.00 | 0.00 | 0.00 | 90 | 1014.6 |
| 20260506232503 | 9 | 316 | 6.4 | 8.0 | 0.00 | 0.00 | 0.00 | 90 | 1014.6 |
| 20260506232003 | 9 | 317 | 4.8 | 8.0 | 0.00 | 0.00 | 0.00 | 90 | 1014.5 |
| 20260506231503 | 9 | 308 | 6.4 | 8.0 | 0.00 | 0.00 | 0.00 | 90 | 1014.4 |
| 20260506231003 | 9 | 300 | 6.4 | 14.5 | 0.00 | 0.00 | 0.00 | 90 | 1014.4 |
| 20260506230503 | 8 | 319 | 4.8 | 9.7 | 0.00 | 0.00 | 0.00 | 90 | 1014.4 |
| 20260506230003 | 8 | 311 | 6.4 | 11.3 | 0.00 | 0.00 | 0.00 | 90 | 1014.3 |
| 20260506225503 | 8 | 315 | 4.8 | 8.0 | 0.00 | 0.00 | 0.00 | 90 | 1014.3 |
| 20260506225003 | 8 | 311 | 3.2 | 8.0 | 0.00 | 0.00 | 0.00 | 90 | 1014.3 |
| 20260506224503 | 8 | 297 | 4.8 | 9.7 | 0.00 | 0.00 | 0.00 | 90 | 1014.2 |
| 20260506224003 | 8 | 276 | 3.2 | 9.7 | 0.00 | 0.00 | 0.00 | 90 | 1014.2 |
| 20260506223524 | 8 | 276 | 1.6 | 3.2 | 0.00 | 0.00 | 0.00 | 90 | 1014.2 |
| 20260506223003 | 8 | 274 | 3.2 | 8.0 | 0.00 | 0.00 | 0.00 | 90 | 1014.2 |
| 20260506222503 | 8 | 283 | 3.2 | 8.0 | 0.00 | 0.00 | 0.00 | 90 | 1014.2 |
| 20260506222003 | 8 | 298 | 4.8 | 8.0 | 0.00 | 0.00 | 0.00 | 90 | 1014.2 |
| 20260506221504 | 8 | 302 | 4.8 | 6.4 | 0.00 | 0.00 | 0.00 | 90 | 1014.2 |
| 20260506221003 | 8 | 313 | 8.0 | 11.3 | 0.00 | 0.00 | 0.00 | 90 | 1014.2 |
| 20260506220503 | 8 | 318 | 6.4 | 9.7 | 0.00 | 0.00 | 0.00 | 89 | 1014.2 |
| 20260506220004 | 8 | 323 | 4.8 | 8.0 | 0.00 | 0.23 | 0.00 | 89 | 1014.2 |
| 20260506215503 | 8 | 305 | 4.8 | 9.7 | 0.00 | 0.23 | 0.23 | 89 | 1014.1 |
| 20260506215004 | 8 | 297 | 3.2 | 6.4 | 0.00 | 0.23 | 0.23 | 89 | 1014.2 |
| 20260506214503 | 8 | 298 | 3.2 | 8.0 | 0.00 | 0.23 | 0.23 | 89 | 1014.2 |
| 20260506214003 | 8 | 300 | 3.2 | 6.4 | 0.00 | 0.23 | 0.23 | 88 | 1014.2 |
| 20260506213503 | 8 | 299 | 3.2 | 4.8 | 0.00 | 0.23 | 0.23 | 88 | 1014.2 |
| 20260506213003 | 8 | 290 | 3.2 | 6.4 | 0.00 | 0.23 | 0.23 | 88 | 1014.1 |
| 20260506212503 | 8 | 279 | 3.2 | 11.3 | 0.00 | 0.23 | 0.23 | 88 | 1014.2 |
| 20260506212003 | 8 | 292 | 3.2 | 8.0 | 0.00 | 0.23 | 0.23 | 88 | 1014.2 |
| 20260506211503 | 8 | 300 | 3.2 | 6.4 | 0.00 | 0.23 | 0.23 | 88 | 1014.2 |
| 20260506211003 | 8 | 289 | 3.2 | 3.2 | 0.00 | 0.23 | 0.23 | 88 | 1014.1 |
| 20260506210503 | 8 | 307 | 1.6 | 3.2 | 0.00 | 0.23 | 0.23 | 88 | 1014.1 |
| 20260506210003 | 8 | 307 | 3.2 | 3.2 | 0.00 | 0.23 | 0.23 | 87 | 1014.1 |
| 20260506205524 | 8 | 301 | 3.2 | 8.0 | 0.00 | 0.23 | 0.23 | 87 | 1014.1 |
| 20260506205024 | 8 | 296 | 3.2 | 6.4 | 0.00 | 0.23 | 0.23 | 87 | 1014.0 |
| 20260506204503 | 8 | 287 | 4.8 | 8.0 | 0.00 | 0.23 | 0.23 | 87 | 1014.0 |
| 20260506204003 | 9 | 294 | 4.8 | 8.0 | 0.00 | 0.23 | 0.23 | 87 | 1014.0 |
| 20260506203524 | 9 | 287 | 3.2 | 3.2 | 0.00 | 0.23 | 0.23 | 86 | 1014.0 |
| 20260506203003 | 9 | 285 | 3.2 | 3.2 | 0.00 | 0.23 | 0.23 | 86 | 1013.9 |
| 20260506202503 | 9 | 293 | 4.8 | 11.3 | 0.00 | 0.23 | 0.23 | 86 | 1013.9 |
| 20260506202003 | 9 | 308 | 3.2 | 9.7 | 0.00 | 0.23 | 0.23 | 86 | 1013.8 |
| 20260506201524 | 9 | 303 | 6.4 | 9.7 | 0.00 | 0.23 | 0.23 | 86 | 1013.7 |
| 20260506201003 | 9 | 311 | 6.4 | 8.0 | 0.00 | 0.23 | 0.23 | 85 | 1013.7 |
| 20260506200524 | 10 | 312 | 3.2 | 8.0 | 0.00 | 0.23 | 0.23 | 85 | 1013.7 |
| 20260506200003 | 10 | 313 | 4.8 | 11.3 | 0.00 | 0.23 | 0.23 | 85 | 1013.7 |
| 20260506195503 | 10 | 322 | 4.8 | 11.3 | 0.00 | 0.23 | 0.23 | 84 | 1013.6 |
| 20260506195003 | 10 | 313 | 6.4 | 9.7 | 0.00 | 0.23 | 0.23 | 84 | 1013.5 |
| 20260506194503 | 10 | 322 | 4.8 | 8.0 | 0.00 | 0.23 | 0.23 | 84 | 1013.5 |
| 20260506194003 | 10 | 307 | 8.0 | 11.3 | 0.00 | 0.23 | 0.23 | 83 | 1013.5 |
| 20260506193503 | 10 | 320 | 6.4 | 8.0 | 0.00 | 0.23 | 0.23 | 83 | 1013.3 |
| 20260506193003 | 10 | 319 | 6.4 | 11.3 | 0.00 | 0.23 | 0.23 | 83 | 1013.4 |
| 20260506192503 | 10 | 313 | 8.0 | 12.9 | 0.00 | 0.23 | 0.23 | 82 | 1013.2 |
| 20260506192003 | 10 | 311 | 6.4 | 9.7 | 0.00 | 0.23 | 0.23 | 82 | 1013.2 |
| 20260506191524 | 11 | 325 | 6.4 | 6.4 | 0.00 | 0.23 | 0.23 | 82 | 1013.1 |
| 20260506191003 | 11 | 322 | 8.0 | 11.3 | 0.00 | 0.23 | 0.23 | 81 | 1013.0 |
| 20260506190503 | 11 | 318 | 9.7 | 12.9 | 0.00 | 0.23 | 0.23 | 81 | 1013.0 |
| 20260506190004 | 11 | 313 | 9.7 | 16.1 | 0.00 | 0.23 | 0.23 | 80 | 1013.0 |
| 20260506185503 | 11 | 315 | 11.3 | 19.3 | 0.00 | 0.23 | 0.23 | 80 | 1012.9 |
| 20260506185003 | 11 | 316 | 9.7 | 12.9 | 0.00 | 0.23 | 0.23 | 79 | 1012.9 |
| 20260506184503 | 11 | 314 | 14.5 | 17.7 | 0.00 | 0.23 | 0.23 | 79 | 1012.9 |
| 20260506184003 | 12 | 317 | 12.9 | 16.1 | 0.00 | 0.23 | 0.23 | 79 | 1012.9 |
| 20260506183524 | 12 | 318 | 9.7 | 14.5 | 0.00 | 0.23 | 0.23 | 78 | 1012.9 |
| 20260506183003 | 12 | 320 | 11.3 | 17.7 | 0.00 | 0.23 | 0.23 | 78 | 1012.8 |
| 20260506182524 | 12 | 314 | 11.3 | 12.9 | 0.00 | 0.23 | 0.23 | 77 | 1012.8 |
| 20260506182003 | 12 | 314 | 12.9 | 20.9 | 0.00 | 0.23 | 0.23 | 76 | 1012.7 |
| 20260506181524 | 12 | 314 | 12.9 | 17.7 | 0.00 | 0.23 | 0.23 | 76 | 1012.6 |
| 20260506181003 | 13 | 319 | 14.5 | 17.7 | 0.00 | 0.23 | 0.23 | 75 | 1012.6 |
| 20260506180503 | 13 | 317 | 14.5 | 22.5 | 0.00 | 0.23 | 0.23 | 74 | 1012.6 |
| 20260506180004 | 13 | 315 | 12.9 | 17.7 | 0.00 | 0.23 | 0.23 | 74 | 1012.5 |
| 20260506175503 | 13 | 316 | 11.3 | 14.5 | 0.00 | 0.23 | 0.23 | 75 | 1012.5 |
| 20260506175003 | 13 | 310 | 12.9 | 17.7 | 0.00 | 0.23 | 0.23 | 75 | 1012.3 |
| 20260506174504 | 13 | 314 | 11.3 | 14.5 | 0.00 | 0.23 | 0.23 | 75 | 1012.4 |
| 20260506174003 | 13 | 325 | 14.5 | 19.3 | 0.00 | 0.23 | 0.23 | 75 | 1012.3 |
| 20260506173524 | 13 | 324 | 16.1 | 17.7 | 0.00 | 0.23 | 0.23 | 75 | 1012.2 |
| 20260506173024 | 13 | 322 | 17.7 | 24.1 | 0.00 | 0.23 | 0.23 | 74 | 1012.1 |
| 20260506172503 | 13 | 325 | 17.7 | 22.5 | 0.00 | 0.23 | 0.23 | 73 | 1012.0 |
| 20260506172003 | 12 | 322 | 16.1 | 22.5 | 0.00 | 0.23 | 0.23 | 73 | 1012.1 |
| 20260506171503 | 12 | 321 | 16.1 | 17.7 | 0.00 | 0.23 | 0.23 | 75 | 1012.1 |
| 20260506171003 | 12 | 321 | 16.1 | 24.1 | 0.00 | 0.23 | 0.23 | 75 | 1012.1 |
| 20260506170503 | 12 | 322 | 16.1 | 19.3 | 0.00 | 0.23 | 0.23 | 74 | 1012.0 |
| 20260506170004 | 12 | 322 | 16.1 | 20.9 | 0.00 | 0.23 | 0.23 | 74 | 1011.9 |
| 20260506165503 | 12 | 323 | 16.1 | 24.1 | 0.00 | 0.23 | 0.23 | 75 | 1012.0 |
| 20260506165003 | 12 | 325 | 16.1 | 20.9 | 0.00 | 0.23 | 0.23 | 74 | 1012.0 |
| 20260506164503 | 13 | 321 | 17.7 | 24.1 | 0.00 | 0.23 | 0.23 | 75 | 1012.0 |
| 20260506164003 | 13 | 318 | 14.5 | 22.5 | 0.00 | 0.23 | 0.23 | 76 | 1012.0 |
| 20260506163524 | 13 | 321 | 12.9 | 20.9 | 0.00 | 0.23 | 0.23 | 76 | 1012.0 |
| 20260506163003 | 13 | 316 | 14.5 | 24.1 | 0.00 | 0.23 | 0.23 | 75 | 1011.9 |
| 20260506162524 | 13 | 321 | 12.9 | 14.5 | 0.00 | 0.23 | 0.23 | 75 | 1011.9 |
| 20260506162003 | 13 | 323 | 17.7 | 24.1 | 0.00 | 0.23 | 0.23 | 74 | 1011.9 |
| 20260506161503 | 13 | 319 | 16.1 | 22.5 | 0.00 | 0.23 | 0.23 | 75 | 1011.9 |
| 20260506161004 | 13 | 319 | 12.9 | 22.5 | 0.00 | 0.23 | 0.23 | 76 | 1011.9 |
| 20260506160503 | 13 | 319 | 11.3 | 12.9 | 0.00 | 0.23 | 0.23 | 77 | 1011.9 |
| 20260506160003 | 13 | 322 | 11.3 | 17.7 | 0.00 | 0.23 | 0.23 | 78 | 1011.9 |
| 20260506155503 | 13 | 316 | 9.7 | 17.7 | 0.00 | 0.23 | 0.23 | 78 | 1011.8 |
| 20260506155024 | 12 | 318 | 9.7 | 12.9 | 0.00 | 0.23 | 0.23 | 79 | 1011.8 |
| 20260506154503 | 12 | 317 | 9.7 | 14.5 | 0.00 | 0.23 | 0.23 | 79 | 1011.8 |
| 20260506154003 | 12 | 314 | 9.7 | 12.9 | 0.00 | 0.23 | 0.23 | 78 | 1011.8 |
| 20260506153503 | 12 | 319 | 9.7 | 14.5 | 0.00 | 0.23 | 0.23 | 79 | 1011.9 |
| 20260506153003 | 12 | 314 | 11.3 | 12.9 | 0.00 | 0.23 | 0.23 | 78 | 1011.8 |
| 20260506152503 | 13 | 318 | 11.3 | 16.1 | 0.00 | 0.23 | 0.23 | 78 | 1011.8 |
| 20260506152003 | 13 | 317 | 11.3 | 17.7 | 0.00 | 0.23 | 0.23 | 77 | 1011.8 |
| 20260506151503 | 13 | 321 | 8.0 | 11.3 | 0.00 | 0.23 | 0.23 | 78 | 1011.8 |
| 20260506151003 | 13 | 311 | 9.7 | 12.9 | 0.00 | 0.23 | 0.23 | 78 | 1011.8 |
| 20260506150504 | 13 | 318 | 9.7 | 9.7 | 0.00 | 0.23 | 0.23 | 78 | 1011.8 |
| 20260506150004 | 13 | 323 | 11.3 | 19.3 | 0.00 | 0.23 | 0.23 | 77 | 1011.8 |
| 20260506145503 | 13 | 313 | 11.3 | 16.1 | 0.00 | 0.23 | 0.23 | 76 | 1011.8 |
| 20260506145003 | 13 | 316 | 12.9 | 17.7 | 0.00 | 0.23 | 0.23 | 76 | 1011.8 |
| 20260506144503 | 13 | 315 | 14.5 | 20.9 | 0.00 | 0.23 | 0.23 | 76 | 1011.8 |
| 20260506144003 | 13 | 318 | 14.5 | 20.9 | 0.00 | 0.23 | 0.23 | 76 | 1011.8 |
| 20260506143503 | 13 | 317 | 14.5 | 19.3 | 0.00 | 0.23 | 0.23 | 76 | 1011.8 |
| 20260506143003 | 13 | 323 | 16.1 | 19.3 | 0.00 | 0.23 | 0.23 | 75 | 1011.9 |
| 20260506142503 | 13 | 324 | 17.7 | 25.7 | 0.00 | 0.23 | 0.23 | 75 | 1011.8 |
| 20260506142003 | 13 | 315 | 11.3 | 17.7 | 0.00 | 0.23 | 0.23 | 75 | 1011.8 |
| 20260506141503 | 13 | 322 | 17.7 | 19.3 | 0.00 | 0.23 | 0.23 | 74 | 1011.8 |
| 20260506141003 | 13 | 317 | 16.1 | 17.7 | 0.00 | 0.23 | 0.23 | 74 | 1011.8 |
| 20260506140524 | 13 | 328 | 14.5 | 17.7 | 0.00 | 0.23 | 0.23 | 74 | 1011.8 |
| 20260506140024 | 13 | 315 | 12.9 | 22.5 | 0.00 | 0.23 | 0.23 | 74 | 1011.9 |
| 20260506135503 | 13 | 312 | 11.3 | 17.7 | 0.00 | 0.23 | 0.23 | 75 | 1011.7 |
| 20260506135003 | 13 | 320 | 17.7 | 24.1 | 0.00 | 0.23 | 0.23 | 74 | 1011.8 |
| 20260506134503 | 13 | 320 | 16.1 | 25.7 | 0.00 | 0.23 | 0.23 | 74 | 1011.8 |
| 20260506134024 | 13 | 321 | 14.5 | 19.3 | 0.00 | 0.23 | 0.23 | 75 | 1011.8 |
| 20260506133503 | 13 | 319 | 16.1 | 22.5 | 0.00 | 0.23 | 0.23 | 75 | 1011.8 |
| 20260506133003 | 13 | 321 | 17.7 | 22.5 | 0.00 | 0.23 | 0.23 | 74 | 1011.8 |
| 20260506132503 | 13 | 325 | 16.1 | 22.5 | 0.00 | 0.23 | 0.23 | 74 | 1011.8 |
| 20260506132003 | 13 | 324 | 20.9 | 24.1 | 0.00 | 0.23 | 0.23 | 73 | 1011.7 |
| 20260506131503 | 14 | 319 | 16.1 | 24.1 | 0.00 | 0.23 | 0.23 | 73 | 1011.8 |
| 20260506131003 | 14 | 316 | 17.7 | 24.1 | 0.00 | 0.23 | 0.23 | 73 | 1011.7 |
| 20260506130524 | 13 | 325 | 14.5 | 20.9 | 0.00 | 0.23 | 0.23 | 74 | 1011.6 |
| 20260506130004 | 13 | 320 | 14.5 | 19.3 | 0.00 | 0.23 | 0.23 | 76 | 1011.7 |
| 20260506125503 | 13 | 318 | 16.1 | 19.3 | 0.00 | 0.23 | 0.23 | 76 | 1011.6 |
| 20260506125003 | 13 | 320 | 16.1 | 24.1 | 0.00 | 0.23 | 0.23 | 75 | 1011.6 |
| 20260506124524 | 13 | 321 | 16.1 | 20.9 | 0.00 | 0.23 | 0.23 | 76 | 1011.6 |
| 20260506124003 | 13 | 320 | 17.7 | 19.3 | 0.00 | 0.23 | 0.23 | 75 | 1011.6 |